When you browse on this site, cookies collect data to enhance your experience and personalize the content and advertising you see.
Visit our Privacy Policy to learn more. By continuing to use the site, you agree to this use of cookies and data.
EN

Hourly Weather Dinagepoor

Today, 22 September, Tuesday

Time Temperature Precipitation Wind Pressure Humidity
00:00 +29°C° 0 mm 5 mps 749 mmHg 90%
01:00 +28°C° 0.5 mm 6 mps 748 mmHg 90%
02:00 +28°C° 0.5 mm 6 mps 748 mmHg 90%
03:00 +28°C° 0.5 mm 6 mps 748 mmHg 90%
04:00 +28°C° 0.1 mm 6 mps 748 mmHg 91%
05:00 +28°C° 0.1 mm 6 mps 748 mmHg 91%
06:00 +27°C° 0 mm 6 mps 748 mmHg 88%
07:00 +28°C° 0.3 mm 6 mps 749 mmHg 88%
08:00 +28°C° 0.3 mm 6 mps 750 mmHg 88%
09:00 +29°C° 0.3 mm 6 mps 750 mmHg 88%
10:00 +29°C° 1.2 mm 7 mps 750 mmHg 87%
11:00 +30°C° 1.2 mm 7 mps 750 mmHg 86%
12:00 +30°C° 0 mm 7 mps 749 mmHg 89%
13:00 +30°C° 1.2 mm 7 mps 749 mmHg 89%
14:00 +30°C° 1.2 mm 7 mps 748 mmHg 88%
15:00 +30°C° 1.2 mm 7 mps 748 mmHg 88%
16:00 +29°C° 0.6 mm 6 mps 748 mmHg 90%
17:00 +29°C° 0.6 mm 6 mps 748 mmHg 92%
18:00 +28°C° 0.6 mm 6 mps 748 mmHg 94%
19:00 +28°C° 0.8 mm 5 mps 748 mmHg 94%
20:00 +28°C° 0.8 mm 5 mps 749 mmHg 94%
21:00 +28°C° 0.8 mm 5 mps 750 mmHg 94%
22:00 +28°C° 4.5 mm 5 mps 750 mmHg 94%
23:00 +28°C° 4.5 mm 4 mps 750 mmHg 95%

Tomorrow, 23 September, Wednesday

Time Temperature Precipitation Wind Pressure Humidity
00:00 +28°C° 4.5 mm 4 mps 750 mmHg 95%
01:00 +28°C° 2.5 mm 4 mps 750 mmHg 95%
02:00 +28°C° 2.5 mm 4 mps 749 mmHg 95%
03:00 +28°C° 2.5 mm 4 mps 749 mmHg 95%
04:00 +28°C° 2.1 mm 4 mps 749 mmHg 96%
05:00 +27°C° 2.1 mm 4 mps 749 mmHg 96%
06:00 +27°C° 2.1 mm 4 mps 749 mmHg 96%
07:00 +28°C° 1.1 mm 5 mps 750 mmHg 94%
08:00 +28°C° 1.1 mm 5 mps 750 mmHg 92%
09:00 +29°C° 1.1 mm 5 mps 751 mmHg 90%
10:00 +30°C° 1 mm 4 mps 751 mmHg 86%
11:00 +32°C° 1 mm 4 mps 750 mmHg 81%
12:00 +33°C° 1 mm 4 mps 750 mmHg 77%
13:00 +32°C° 1.7 mm 4 mps 750 mmHg 80%
14:00 +32°C° 1.7 mm 4 mps 749 mmHg 82%
15:00 +30°C° 1.7 mm 5 mps 749 mmHg 85%
16:00 +30°C° 1.1 mm 5 mps 749 mmHg 88%
17:00 +29°C° 1.1 mm 5 mps 749 mmHg 90%
18:00 +28°C° 1.1 mm 5 mps 749 mmHg 92%
19:00 +28°C° 0.2 mm 5 mps 750 mmHg 93%
20:00 +28°C° 0.2 mm 5 mps 751 mmHg 94%
21:00 +28°C° 0.2 mm 4 mps 751 mmHg 95%
22:00 +28°C° 1.7 mm 4 mps 751 mmHg 96%
23:00 +27°C° 1.7 mm 3 mps 751 mmHg 96%

Day after tomorrow, 24 September, Thursday

Time Temperature Precipitation Wind Pressure Humidity
00:00 +27°C° 1.7 mm 3 mps 751 mmHg 97%
01:00 +27°C° 1.6 mm 2 mps 751 mmHg 97%
02:00 +27°C° 1.6 mm 2 mps 751 mmHg 97%
03:00 +27°C° 1.6 mm 2 mps 750 mmHg 98%
04:00 +27°C° 1.6 mm 2 mps 750 mmHg 97%
05:00 +27°C° 1.6 mm 2 mps 750 mmHg 97%
06:00 +27°C° 1.6 mm 3 mps 751 mmHg 97%
07:00 +27°C° 0.4 mm 3 mps 751 mmHg 96%
08:00 +27°C° 0.4 mm 3 mps 752 mmHg 96%
09:00 +27°C° 0.4 mm 3 mps 752 mmHg 95%
10:00 +28°C° 0 mm 4 mps 752 mmHg 94%
11:00 +28°C° 0 mm 4 mps 752 mmHg 93%
12:00 +28°C° 0 mm 4 mps 751 mmHg 92%
13:00 +29°C° 0.1 mm 4 mps 751 mmHg 90%
14:00 +29°C° 0.1 mm 4 mps 750 mmHg 88%
15:00 +30°C° 0.1 mm 4 mps 750 mmHg 86%
16:00 +29°C° 0.2 mm 3 mps 750 mmHg 88%
17:00 +29°C° 0.2 mm 3 mps 750 mmHg 90%
18:00 +29°C° 0.2 mm 3 mps 750 mmHg 91%
19:00 +28°C° 0.2 mm 3 mps 750 mmHg 92%
20:00 +28°C° 0.2 mm 3 mps 751 mmHg 92%
21:00 +28°C° 0.2 mm 3 mps 752 mmHg 93%
22:00 +28°C° 0.1 mm 3 mps 751 mmHg 93%
23:00 +28°C° 0.1 mm 3 mps 751 mmHg 94%

25 September, Friday

Time Temperature Precipitation Wind Pressure Humidity
00:00 +27°C° 0.1 mm 3 mps 751 mmHg 94%
01:00 +27°C° 1.6 mm 3 mps 750 mmHg 95%
02:00 +27°C° 1.6 mm 3 mps 750 mmHg 96%
03:00 +27°C° 1.6 mm 3 mps 749 mmHg 96%
04:00 +27°C° 1.9 mm 3 mps 749 mmHg 96%
05:00 +27°C° 1.9 mm 2 mps 749 mmHg 96%
06:00 +27°C° 1.9 mm 2 mps 749 mmHg 96%
07:00 +28°C° 0.7 mm 2 mps 750 mmHg 94%
08:00 +28°C° 0.7 mm 1 mps 750 mmHg 93%
09:00 +28°C° 0.7 mm 1 mps 750 mmHg 91%
10:00 +29°C° 1.1 mm 2 mps 750 mmHg 88%
11:00 +30°C° 1.1 mm 2 mps 749 mmHg 84%
12:00 +31°C° 1.1 mm 2 mps 749 mmHg 81%
13:00 +31°C° 1.5 mm 3 mps 749 mmHg 83%
14:00 +30°C° 1.5 mm 4 mps 748 mmHg 85%
15:00 +30°C° 1.5 mm 5 mps 747 mmHg 87%
16:00 +29°C° 0.4 mm 4 mps 747 mmHg 88%
17:00 +29°C° 0.4 mm 3 mps 747 mmHg 90%
18:00 +28°C° 0.4 mm 3 mps 747 mmHg 92%
19:00 +28°C° 0.2 mm 3 mps 748 mmHg 92%
20:00 +28°C° 0.2 mm 3 mps 749 mmHg 93%
21:00 +28°C° 0.2 mm 4 mps 749 mmHg 94%
22:00 +28°C° 1.3 mm 3 mps 749 mmHg 94%
23:00 +27°C° 1.3 mm 3 mps 749 mmHg 95%

26 September, Saturday

Time Temperature Precipitation Wind Pressure Humidity
00:00 +27°C° 1.3 mm 3 mps 749 mmHg 96%
01:00 +27°C° 2 mm 3 mps 749 mmHg 96%
02:00 +27°C° 2 mm 2 mps 748 mmHg 97%
03:00 +27°C° 2 mm 2 mps 748 mmHg 98%
04:00 +27°C° 1.4 mm 2 mps 748 mmHg 97%
05:00 +27°C° 1.4 mm 1 mps 748 mmHg 97%
06:00 +27°C° 1.4 mm 1 mps 748 mmHg 97%
07:00 +28°C° 0.3 mm 1 mps 748 mmHg 94%
08:00 +28°C° 0.3 mm 1 mps 749 mmHg 92%
09:00 +29°C° 0.3 mm 1 mps 749 mmHg 89%
10:00 +30°C° 0.8 mm 2 mps 749 mmHg 85%
11:00 +31°C° 0.8 mm 2 mps 748 mmHg 81%
12:00 +33°C° 0.8 mm 3 mps 748 mmHg 77%
13:00 +33°C° 1.9 mm 4 mps 748 mmHg 77%
14:00 +33°C° 1.9 mm 4 mps 747 mmHg 78%
15:00 +32°C° 1.9 mm 5 mps 747 mmHg 79%
16:00 +30°C° 1.3 mm 5 mps 747 mmHg 83%
17:00 +29°C° 1.3 mm 5 mps 747 mmHg 87%
18:00 +28°C° 1.3 mm 6 mps 747 mmHg 90%
19:00 +28°C° 0.2 mm 5 mps 748 mmHg 91%
20:00 +28°C° 0.2 mm 5 mps 748 mmHg 92%
21:00 +28°C° 0.2 mm 5 mps 749 mmHg 92%
22:00 +28°C° 0.1 mm 5 mps 749 mmHg 93%
23:00 +28°C° 0.1 mm 4 mps 749 mmHg 93%

27 September, Sunday

Time Temperature Precipitation Wind Pressure Humidity
00:00 +27°C° 0.1 mm 4 mps 749 mmHg 94%
01:00 +27°C° 0.4 mm 4 mps 748 mmHg 94%
02:00 +27°C° 0.4 mm 5 mps 748 mmHg 94%
03:00 +27°C° 0.4 mm 5 mps 748 mmHg 94%
04:00 +27°C° 1 mm 5 mps 748 mmHg 94%
05:00 +27°C° 1 mm 5 mps 748 mmHg 94%
06:00 +26°C° 1 mm 5 mps 748 mmHg 95%
07:00 +27°C° 0.2 mm 5 mps 749 mmHg 93%
08:00 +27°C° 0.2 mm 5 mps 749 mmHg 92%
09:00 +28°C° 0.2 mm 5 mps 750 mmHg 91%
10:00 +29°C° 0.4 mm 5 mps 750 mmHg 87%
11:00 +30°C° 0.4 mm 5 mps 749 mmHg 83%
12:00 +32°C° 0.4 mm 5 mps 749 mmHg 79%
13:00 +32°C° 1.3 mm 5 mps 748 mmHg 80%
14:00 +32°C° 1.3 mm 5 mps 748 mmHg 81%
15:00 +32°C° 1.3 mm 5 mps 747 mmHg 81%
16:00 +30°C° 0.3 mm 5 mps 747 mmHg 84%
17:00 +29°C° 0.3 mm 4 mps 748 mmHg 87%
18:00 +29°C° 0.3 mm 4 mps 748 mmHg 89%
19:00 +28°C° 0.5 mm 4 mps 748 mmHg 91%
20:00 +28°C° 0.5 mm 4 mps 749 mmHg 92%
21:00 +27°C° 0.5 mm 4 mps 750 mmHg 93%
22:00 +27°C° 0.1 mm 4 mps 750 mmHg 94%
23:00 +27°C° 0.1 mm 4 mps 750 mmHg 94%
Show more